CZ-6A DEB

Satellite information

Favourite Embed

Satellite Type and Status

DEBRISIN ORBIT

Key statistics

Satellite CZ-6A DEB at a glance.

Uptime

1076

Days in orbit

Revolutions

≈ 14.1

Per day

Orbit

SSO

Sun Synchronous Orbit

Inclination

98.8

Latest

Satellite identification and parameters

Extended collection of information and parameters for CZ-6A DEB.

Object identification

Identified? True

Debris? True

Object name: CZ-6A DEB

International designator: 2022-151AAG

Object number (NORAD): 55884

Object ID (CCSDS): 55884

Country: PEOPLES REPUBLIC OF CHINA (PRC)

Current information (Y/N): Y

RCS size: SMALL

Orbital parameters

Period: 101.816 minutes

Inclination: 98.8362 deg

SMA: 7222.797 km

Apoapsis: 880.989 km

Periapsis: 808.335 km

RAAN: 294.8832 deg

Eccentricy: 0.00502949

Argument of periapsis: 295.5365 deg

Mean anomaly: 64.0612 deg

Mean motion: 14.1431004 rev/day

Mean motion (dot): 0.00003897 rev/day2

B* drag term: 0.0020370725 1/REarth

Two-line elements (TLE)

Creation date: Oct. 21, 2025, 3:26 a.m.

Reference frame: TEME

Reference center: EARTH

Epoch: Oct. 20, 2025, 10:03 p.m. UTC

TLE line 0: 0 CZ-6A DEB

TLE line 1: 1 55884U 22151AAG 25293.91905173 .00003897 00000-0 20371-2 0 9999

TLE line 2: 2 55884 98.8362 294.8832 0050295 295.5365 64.0612 14.14310040136894

Live tracking on map

Real-time ground track for satellite CZ-6A DEB.

In-orbit conjunctions

A list of the most updated potential collisions computed for object CZ-6A DEB.

Target Orbit TCA Probability of collision Miss distance Type
OBJECT C LEO 2025-03-08 04:09:56 0.0001333193 252.0 (m) UNKNOWN
SL-3 R/B LEO 2025-02-20 17:33:57 0.0002060273 421.0 (m) ROCKET BODY

Associated space launch

Chinese satellite reported for atmospheric/ocean/environmental/spatial parameter research purposes, details TBD.

CZ-6A DEB was lifted into orbit during the mission ‘Long March 6A | Yunhai 3’, on board a Long March 6A space rocket.

The launch took place on Nov. 11, 2022, 10:52 p.m. from Launch Complex 9A.

For more information about the launch, click the button.

Launch to space Long March 6A | Yunhai 3
Long March 6A | Yunhai 3

Agency: N/A

Status: Launch Successful

Launch date: Nov. 11, 2022, 10:52 p.m. UTC

Rocket: Long March 6A

Launch pad: Launch Complex 9A

Location: Taiyuan Satellite Launch Center, People's Republic of China

...

Latest news about this satellite

There are no fresh news available about this satellite. Check back as we update our databases every day.


Newsletter sign-up

Weekly statistics, charts and insights to help you stay on top of the space industry.